Flag for Puerto Rico Weather past 2 weeks in Caguas, Puerto Rico

Now
73 °F

Passing clouds.


Feels Like: 73 °F
Forecast: 64 / 87 °F
Wind: No wind

Location: Luis Munoz Marin

Current Time: Mar 31, 2015 at 4:42:22 AM

Latest Report: Mar 31, 2015 at 3:56 AM


Visibility: 10 mi

Pressure: 29.99 "Hg

Humidity: 81%

Dew point: 67 °F

Location of CaguasLocation

Historic Weather in Caguas — Graph

°F

Caguas temperature yesterday

Maximum temperature yesterday: 86 °F (at 1:56 PM)
Minimum temperature yesterday: 73 °F (at 4:56 AM)
Average temperature yesterday: 78 °F

Past Weeks' High & Low Weather Summary

 TemperatureHumidityPressure
High87 °F (Mar 28, 11:56 AM)94% (Mar 16, 2:56 AM)30.16 "Hg (Mar 16, 2:56 AM)
Low71 °F (Mar 17, 4:56 AM)48% (Mar 28, 11:56 AM)29.94 "Hg (Mar 18, 3:56 PM)
Average78 °F76%30.04 "Hg
* Reported Mar 16 2:56 AM — Mar 31 2:56 AM, Caguas, Weather by CustomWeather, © 2015

Note: Actual official high and low records may vary slightly from our data, if they occured in-between our weather recording intervals... More about our weather records

Advertising

Caguas weather history for previous 24 hours

 ConditionsComfort  
Time TempWeatherWind HumidityBarometerVisibility
2:56 AM
Tue, Mar 31
73 °FPassing clouds.No wind81%29.99 "Hg10 mi
1:56 AM73 °FPassing clouds.No wind79%30.01 "Hg10 mi
12:56 AM75 °FClear.No wind76%30.03 "Hg10 mi
11:56 PM
Mon, Mar 30
75 °FClear.No wind74%30.04 "Hg10 mi
10:56 PM76 °FClear.5 mph74%30.05 "Hg10 mi
9:56 PM77 °FClear.5 mph74%30.05 "Hg10 mi
8:56 PM78 °FClear.8 mph71%30.05 "Hg10 mi
7:56 PM78 °FPassing clouds.8 mph69%30.03 "Hg10 mi
6:56 PM78 °FScattered clouds.13 mph71%30.01 "Hg10 mi
5:56 PM80 °FScattered clouds.15 mph67%30.00 "Hg10 mi
4:56 PM82 °FScattered clouds.15 mph65%29.99 "Hg10 mi
3:56 PM84 °FScattered clouds.18 mph61%29.98 "Hg10 mi
2:56 PM85 °FScattered clouds.20 mph59%30.00 "Hg10 mi
1:56 PM86 °FBroken clouds.15 mph59%30.02 "Hg10 mi
12:56 PM84 °FBroken clouds.15 mph61%30.05 "Hg10 mi
11:56 AM82 °FBroken clouds.10 mph65%30.08 "Hg10 mi
10:56 AM81 °FBroken clouds.7 mph69%30.09 "Hg10 mi
9:56 AM81 °FBroken clouds.6 mph72%30.10 "Hg10 mi
8:56 AM79 °FBroken clouds.6 mph74%30.09 "Hg10 mi
7:56 AM76 °FBroken clouds.No wind80%30.07 "Hg10 mi
6:56 AM74 °FPassing clouds.No wind85%30.06 "Hg10 mi
5:56 AM73 °FPassing clouds.No wind84%30.04 "Hg10 mi
4:56 AM73 °FPassing clouds.No wind88%30.03 "Hg10 mi
Weather by CustomWeather, © 2015

See weather overviewHow to use our weather pages